Fountain Dale, PA

11:50 AM EDT on October 18, 2017 (GMT -0400)
Fountain Dale

Weather History for KRYT - July, 2013

Change the Weather History Date:

Friday, July 12, 2013

  Actual Average (KHGR) Record (KHGR)
Temperature  
Mean Temperature 72 °F -  
Max Temperature 75 °F 82 °F 93 °F (2011)
Min Temperature 68 °F 62 °F 51 °F (2002)
Cooling Degree Days 6    
Growing Degree Days 22 (Base 50)    
Moisture  
Dew Point 63 °F    
Average Humidity 74    
Maximum Humidity 83    
Minimum Humidity 62    
Precipitation  
Precipitation 0.32 in - - ()
Sea Level Pressure  
Sea Level Pressure 30.00 in    
Wind  
Wind Speed 1 mph (NE)    
Max Wind Speed 5 mph    
Max Gust Speed -    
Visibility 9 miles    
Events Rain    
Averages and records for this station are not official NWS values.
T = Trace of Precipitation, MM = Missing Value Source: NWS Daily Summary

Daily Weather History Graph

Daily Weather History Graph

Search for Another Location

Airport or City:

Trip Planner

Search our weather history database for the weather conditions in past years. The results will help you decide how hot, cold, wet, or windy it might be!

Date:

Astronomy

Jul. 12, 2013 Rise Set
Actual Time 5:52 AM EDT 8:38 PM EDT
Civil Twilight 5:20 AM EDT 9:09 PM EDT
Nautical Twilight 4:40 AM EDT 9:49 PM EDT
Astronomical Twilight 3:54 AM EDT 10:35 PM EDT
Moon 10:06 AM EDT (7/12) 10:48 PM EDT (7/12)
Length of Visible Light 15h 49m
Length of Day
14h 45m
Waxing Crescent, 17% of the Moon is Illuminated
Jul 12
Waxing Crescent
Jul 15
First Quarter
Jul 22
Full
Jul 29
Last Quarter
Aug 6
New

Hourly Weather History & Observations

Time (EDT) Temp. Dew Point Humidity Pressure Visibility Wind Dir Wind Speed Gust Speed Precip Events Conditions
12:53 AM 71.1 °F 63.0 °F 75% 29.91 in 10.0 mi Calm Calm - N/A   Mostly Cloudy
1:53 AM 73.9 °F 60.1 °F 62% 29.94 in 10.0 mi Calm Calm - N/A   Scattered Clouds
2:53 AM 70.0 °F 63.0 °F 78% 29.94 in 6.0 mi Calm Calm - 0.03 in Rain Light Rain
3:53 AM 69.1 °F 63.0 °F 81% 29.94 in 6.0 mi Calm Calm - 0.05 in   Haze
4:53 AM 68.0 °F 62.1 °F 81% 29.95 in 5.0 mi Calm Calm - 0.04 in Rain Light Rain
5:53 AM 68.0 °F 61.0 °F 78% 29.95 in 9.0 mi Calm Calm - 0.04 in   Overcast
6:53 AM 68.0 °F 62.1 °F 81% 29.95 in 6.0 mi Calm Calm - 0.03 in Rain Light Rain
7:53 AM 69.1 °F 61.0 °F 75% 29.97 in 9.0 mi Calm Calm - 0.01 in Rain Light Rain
8:53 AM 71.1 °F 62.1 °F 73% 29.98 in 10.0 mi Calm Calm - 0.00 in   Overcast
9:53 AM 72.0 °F 62.1 °F 71% 29.98 in 10.0 mi Variable 3.5 mph - N/A   Overcast
10:53 AM 72.0 °F 62.1 °F 71% 29.99 in 10.0 mi Variable 4.6 mph - N/A   Overcast
11:53 AM 73.9 °F 63.0 °F 68% 30.01 in 10.0 mi Variable 3.5 mph - 0.00 in   Overcast
12:15 PM 73.4 °F 62.6 °F 69% 30.05 in 10.0 mi Variable 3.5 mph - N/A   Mostly Cloudy
12:25 PM 73.4 °F 62.6 °F 69% 30.05 in 10.0 mi NNE 4.6 mph - N/A   Overcast
12:53 PM 73.0 °F 63.0 °F 71% 30.02 in 10.0 mi Calm Calm - N/A   Overcast
1:35 PM 73.4 °F 62.6 °F 69% 30.03 in 10.0 mi Variable 3.5 mph - N/A   Overcast
1:53 PM 73.9 °F 63.0 °F 68% 30.01 in 10.0 mi Variable 3.5 mph - N/A   Overcast
2:53 PM 75.0 °F 63.0 °F 66% 30.01 in 10.0 mi Variable 4.6 mph - N/A   Scattered Clouds
3:53 PM 73.9 °F 64.0 °F 71% 30.02 in 10.0 mi Calm Calm - 0.00 in Rain Light Rain
4:53 PM 73.9 °F 64.0 °F 71% 30.01 in 10.0 mi Calm Calm - 0.00 in   Overcast
5:53 PM 75.0 °F 64.9 °F 71% 30.01 in 10.0 mi NE 4.6 mph - N/A   Mostly Cloudy
6:53 PM 75.0 °F 66.0 °F 73% 30.01 in 10.0 mi Calm Calm - N/A   Mostly Cloudy
7:53 PM 73.9 °F 66.9 °F 79% 30.02 in 10.0 mi Calm Calm - 0.00 in   Overcast
8:53 PM 73.0 °F 66.0 °F 79% 30.02 in 10.0 mi Calm Calm - N/A   Overcast
9:34 PM 73.4 °F 64.4 °F 73% 30.06 in 10.0 mi Calm Calm - 0.00 in Rain Light Rain
9:53 PM 72.0 °F 64.9 °F 78% 30.04 in 5.0 mi Calm Calm - 0.03 in Rain Rain
10:07 PM 71.6 °F 66.2 °F 83% 30.07 in 4.0 mi Calm Calm - 0.03 in Rain Light Rain
10:53 PM 72.0 °F 66.0 °F 81% 30.05 in 7.0 mi Calm Calm - 0.09 in Rain Light Rain
11:30 PM 71.6 °F 66.2 °F 83% 30.08 in 3.0 mi Variable 4.6 mph - 0.05 in Rain Light Rain